Overview Statistics Trail Chart Weather Telemetry Raw packets
 

This is the latest recevied weather packets stored in our database for station/object KC1HBM. If no packets are shown the sender has not sent any weather packets the latest 10 day(s).

<< 102 103 104 105 106 107 108 >>
Time Temp. Humidity Pressure Rain* Wind** Luminosity Snow
1787848114 25° C 82% 1015.1 hPa 0 mm - 699 W/m² -
1787847808 25.56° C 81% 1015.3 hPa 0 mm - 709 W/m² -
1787847504 25° C 80% 1015.4 hPa 0 mm - 697 W/m² -
1787847199 25.56° C 80% 1015.2 hPa 0 mm - 690 W/m² -
1787846896 25.56° C 79% 1015.4 hPa 0 mm - 692 W/m² -
1787846595 25.56° C 79% 1015.5 hPa 0 mm - 696 W/m² -
1787846290 25° C 78% 1015.4 hPa 0 mm - 658 W/m² -
1787845987 25° C 79% 1015.6 hPa 0 mm - 655 W/m² -
1787845682 25° C 77% 1015.6 hPa 0 mm - 669 W/m² -
1787845381 25° C 76% 1015.6 hPa 0 mm - 619 W/m² -
1787845078 25° C 75% 1015.7 hPa 0 mm - 591 W/m² -
1787844774 25° C 76% 1015.7 hPa 0 mm - 566 W/m² -
1787844472 24.44° C 78% 1015.7 hPa 0 mm - 638 W/m² -
1787844167 24.44° C 78% 1016 hPa 0 mm - 502 W/m² -
1787843866 25° C 77% 1015.8 hPa 0 mm - 636 W/m² -
1787843562 24.44° C 79% 1016 hPa 0 mm - 395 W/m² -
1787843258 25° C 77% 1016 hPa 0 mm - 315 W/m² -
1787842953 24.44° C 77% 1015.9 hPa 0 mm - 511 W/m² -
1787842647 25.56° C 75% 1015.8 hPa 0 mm - 456 W/m² -
1787842343 25° C 76% 1015.8 hPa 0 mm - 545 W/m² -
1787842042 25° C 79% 1015.7 hPa 0 mm - 527 W/m² -
1787841738 25° C 78% 1015.8 hPa 0 mm - 555 W/m² -
1787841433 25° C 78% 1015.9 hPa 0 mm - 524 W/m² -
1787841127 25° C 80% 1015.9 hPa 0 mm - 527 W/m² -
1787840824 25° C 78% 1015.8 hPa 0 mm - 429 W/m² -

* Rain latest hour (hover to see other rain measurements)
** Current wind speed in m/s (hover to see current wind gust speed)